{"data":{"norad_id":66198,"intl_designator":"2025-243X","name":"STARLINK-35518","alt_names":[],"object_type":"PAYLOAD","status":"ACTIVE","operator":null,"country":"US","launch_date":"2025-10-26","launch_site_code":"AFETR","launch_vehicle":null,"mission":null,"orbit_class":"UNKNOWN","rcs_meters":null,"size_class":null,"mass_kg":null,"dimensions":null,"purposes":["comms"],"wikipedia_slug":null,"has_3d_model":false,"image_url":null,"decayed_at":null,"tle_current":{"epoch":"2026-09-20T04:06:50.178240Z","epoch_age_seconds":128836,"freshness":"FRESH","line1":"1 66198U 25243X   26263.17141410  .00020246  00000+0  60870-3 0  9991","line2":"2 66198  53.1612  60.9241 0001320  89.6389 270.4765 15.34400694 50441","mean_motion":15.34400694,"eccentricity":0.000132,"inclination_deg":53.1612,"raan_deg":60.9241,"arg_perigee_deg":89.6389,"mean_anomaly_deg":270.4765,"bstar":0.0006087,"rev_number":5044,"period_min":93.847715634571,"perigee_km":461.7981868542,"apogee_km":463.60416813306,"semimajor_km":6840.8381774936,"source":"CELESTRAK","updated_at":"2026-09-21T09:00:35.837978Z"}}}